GFSGBSN_925_thetae_093.txt.gz
Theta_e
313 314 314 314 316 315 315 315 314 313 311 313 314 313 312 310 310 310 313 315 313 314 316 318 318 316 321 319 315 313 312 314 315 317 316 317 316 317 317 315 316 317 319 321 322 326 330
315 315 315 315 314 314 315 315 315 314 313 313 313 312 309 309 310 309 310 310 313 314 315 315 316 317 321 318 313 314 314 315 316 317 317 317 317 316 316 316 316 316 318 321 320 322 327
316 315 315 314 315 315 315 314 313 312 311 309 309 308 308 309 309 309 309 311 314 313 315 316 315 319 321 318 315 317 317 318 317 317 318 317 316 317 316 317 317 317 317 318 318 323 322
315 315 315 315 315 315 315 314 312 310 309 308 307 307 307 308 309 309 311 314 313 312 315 315 316 320 321 316 317 318 319 319 318 318 318 318 317 317 318 318 317 317 316 317 319 317 322
315 313 314 314 313 314 314 311 309 307 305 305 306 306 307 307 308 309 313 314 313 312 315 316 322 320 320 317 319 318 318 319 318 318 318 317 317 318 318 320 319 317 317 316 315 319 317
313 313 313 312 310 309 307 306 307 306 305 305 305 305 306 307 307 310 313 315 315 316 320 320 321 323 320 320 319 318 319 318 319 318 318 319 319 320 320 319 320 318 317 316 315 316 320
313 312 312 312 309 308 305 303 303 304 305 305 305 305 306 306 307 311 315 317 319 322 319 320 321 321 320 319 319 320 319 319 319 319 320 319 320 322 321 320 318 317 317 316 315 315 317
317 317 316 316 316 313 308 306 305 303 303 305 305 305 305 306 307 312 318 317 315 316 322 320 320 320 319 318 321 321 318 320 320 321 321 322 324 323 321 321 320 317 316 316 315 315 318
317 317 317 317 317 316 316 313 307 305 304 303 305 305 305 306 310 316 317 315 315 316 323 322 321 320 320 319 322 321 319 320 321 321 322 323 324 321 321 320 320 318 316 316 316 315 318
313 313 313 312 314 315 315 315 314 311 306 305 304 305 305 306 313 313 318 314 315 316 326 321 320 321 320 321 323 320 319 320 321 322 322 324 323 324 323 322 320 319 317 316 316 317 323
313 313 312 311 311 312 311 312 312 311 310 307 305 305 306 306 312 313 314 313 316 318 325 319 319 319 319 320 320 322 319 320 322 323 323 323 324 324 325 321 321 319 318 317 317 318 323
314 314 313 312 310 311 312 310 311 311 308 306 306 304 306 314 312 313 312 313 318 328 324 320 319 319 319 319 318 320 321 320 322 322 321 322 322 324 324 323 323 321 319 319 321 323 329
316 315 316 316 314 310 310 311 309 309 307 304 305 304 307 312 313 313 314 316 325 323 319 320 320 320 319 319 320 319 320 321 323 323 324 323 323 322 322 325 322 324 322 329 333 336 336
318 317 317 317 315 313 308 310 311 308 306 302 304 306 311 313 314 315 317 319 319 320 319 319 320 320 320 319 319 320 319 319 319 319 322 326 327 322 321 324 325 325 323 332 336 333 335
318 318 317 317 316 313 308 309 311 309 307 302 306 312 312 314 314 316 318 317 316 320 319 320 319 320 320 320 319 319 319 318 316 317 319 324 325 322 321 323 323 324 328 325 325 327 332
316 318 318 317 316 313 307 308 310 309 306 304 309 310 314 314 316 315 317 314 314 318 317 316 317 319 320 320 319 320 319 318 316 315 316 321 324 321 322 323 321 323 324 328 328 341 337
314 316 318 318 317 312 306 306 310 309 306 303 311 310 315 313 315 316 315 314 315 315 315 316 317 318 318 319 318 319 319 318 316 314 316 318 322 321 323 323 323 324 326 325 329 327 338
314 314 316 316 316 311 306 305 308 307 305 308 309 311 311 313 315 314 312 315 311 314 315 315 315 317 318 317 317 318 317 317 315 314 316 316 316 320 320 320 320 319 318 323 331 333 329
317 311 311 309 312 309 305 303 305 307 305 308 309 310 311 313 316 314 312 312 313 313 314 314 315 315 315 315 316 316 316 316 314 314 316 315 316 318 319 320 317 316 322 321 322 322 327
313 311 308 306 309 308 305 302 303 305 305 308 308 313 313 314 312 312 311 311 314 313 313 313 314 314 314 315 315 315 315 314 314 314 315 315 316 317 317 316 316 316 316 323 323 328 325
311 311 308 305 307 307 305 301 301 304 305 308 307 311 311 316 314 311 310 309 309 310 313 313 313 313 313 313 313 314 314 314 314 313 313 314 314 315 315 314 314 314 314 314 315 315 317
307 312 313 309 308 308 305 302 301 306 306 308 308 308 309 311 310 309 309 308 309 308 309 308 310 311 312 312 312 313 313 313 313 313 313 314 314 315 316 314 315 315 317 317 315 314 313
311 309 315 315 311 308 305 301 301 306 305 306 307 308 309 311 310 311 313 310 308 309 307 310 311 309 307 307 309 309 309 310 311 312 313 313 314 316 319 314 316 319 315 316 316 315 314
317 313 310 315 315 309 306 303 301 305 304 306 308 309 311 313 309 310 309 307 306 307 308 307 306 306 307 307 308 309 310 311 312 312 312 313 314 316 319 319 320 316 314 313 313 311 310
318 316 315 313 314 311 307 304 302 302 303 308 309 309 311 312 312 310 309 307 306 306 308 307 305 307 308 310 312 312 313 314 313 312 312 312 314 318 319 320 316 315 313 311 312 309 313
317 317 316 315 314 312 309 307 304 302 303 308 309 310 310 312 312 310 309 308 307 305 305 307 308 308 308 311 312 314 314 313 313 316 312 312 313 316 318 322 323 314 312 310 308 311 313
317 317 316 314 313 312 310 308 305 303 304 308 309 308 309 311 311 308 309 308 307 307 305 306 306 307 308 310 312 314 314 313 312 315 318 316 316 318 320 321 319 314 312 311 313 313 312
317 316 316 314 313 312 310 308 306 304 305 309 308 308 308 310 310 308 307 307 307 306 304 307 305 308 310 310 311 313 314 313 315 314 316 317 318 320 318 321 325 313 312 313 311 312 311
317 317 316 315 313 312 311 310 308 305 304 308 309 309 309 310 309 307 307 307 308 307 307 307 306 308 309 312 311 312 314 315 316 316 316 316 316 318 317 319 314 313 313 312 311 311 311

GFSGBSN_925_thetae_096.txt.gz
Theta_e
315 316 315 315 314 315 315 315 315 314 314 312 309 308 308 309 310 310 309 309 310 314 314 315 316 315 321 323 317 314 314 315 316 317 318 317 318 318 319 318 317 316 317 318 319 321 323
316 315 315 315 315 315 315 315 311 309 309 308 308 308 308 308 309 309 309 310 313 314 313 315 315 318 324 321 315 315 315 317 318 318 318 318 317 317 316 316 316 317 317 317 318 320 320
315 315 316 315 315 315 315 314 310 308 307 307 307 307 307 307 308 309 309 313 314 313 313 315 315 320 322 318 316 318 318 319 319 318 319 319 318 317 318 318 318 317 317 317 317 318 322
315 314 315 315 315 315 313 309 307 306 305 305 306 306 306 307 308 308 310 313 314 313 313 315 320 323 323 317 318 319 319 319 319 319 319 319 318 318 318 318 319 318 317 317 317 317 317
315 314 313 312 310 310 308 306 305 305 305 305 305 305 306 306 307 308 312 314 316 314 317 317 323 322 321 319 320 320 319 320 319 319 319 319 318 320 320 319 319 319 319 317 318 317 317
310 311 310 310 308 306 304 303 303 304 305 305 305 305 306 306 307 309 314 318 317 317 322 322 322 324 321 321 320 319 320 319 319 320 320 320 320 321 321 321 323 321 319 318 318 317 316
314 314 313 314 313 309 306 306 305 304 303 305 305 305 305 306 307 312 318 320 318 324 318 320 320 321 320 320 320 321 320 319 320 321 322 322 321 322 323 323 322 322 320 320 317 316 316
318 317 317 317 317 316 315 312 308 306 306 304 305 305 305 306 307 316 317 317 316 316 320 321 321 320 320 320 321 322 320 321 321 322 322 323 324 323 321 322 323 323 322 320 316 316 315
315 317 316 315 315 315 315 315 314 312 309 307 306 305 306 305 313 314 318 315 316 317 322 323 322 320 320 320 321 322 320 320 321 321 322 323 323 322 323 323 321 321 321 320 317 316 316
312 313 313 312 311 312 311 312 312 310 310 307 306 305 307 306 315 313 319 313 316 318 327 325 322 322 320 322 322 320 320 320 321 322 323 323 322 322 323 323 322 324 320 319 319 320 317
313 312 312 311 310 309 311 310 310 310 307 305 303 303 305 312 309 313 314 313 316 320 329 319 321 318 319 320 320 322 321 320 322 323 322 323 322 323 325 323 323 323 321 322 322 319 317
313 314 313 313 313 310 309 310 310 308 307 303 302 303 305 315 314 314 313 314 318 331 326 321 319 320 320 320 319 320 320 321 322 321 319 321 322 323 323 322 323 323 322 323 323 323 323
315 315 315 315 315 314 312 308 309 309 306 302 302 304 310 313 314 314 316 317 326 329 319 321 320 319 319 320 320 320 320 320 319 318 319 320 322 322 322 325 324 324 325 325 326 328 325
317 316 317 317 316 315 313 310 307 308 306 302 302 310 313 312 315 316 318 320 322 320 321 319 318 317 320 319 319 319 320 320 316 316 317 320 325 321 321 323 326 326 325 327 327 335 334
316 315 317 318 317 315 314 311 307 307 307 303 302 313 313 316 314 316 318 319 319 319 319 317 316 318 319 319 319 318 319 319 317 314 317 321 325 320 322 321 323 324 329 323 325 325 332
318 316 315 317 318 317 315 311 306 306 306 305 306 312 313 313 316 317 318 317 316 316 315 315 315 318 318 318 319 318 319 318 316 314 315 318 322 321 322 323 323 324 324 329 326 334 332
320 319 316 315 317 317 316 312 305 305 306 304 311 312 316 313 315 315 317 315 314 314 315 315 315 316 316 317 318 317 318 317 315 315 315 316 318 318 320 322 323 324 323 327 327 330 336
323 320 319 314 314 317 316 311 304 305 304 308 309 312 312 312 315 316 314 314 311 312 314 315 315 316 317 317 316 316 317 317 315 314 316 315 315 317 319 320 320 320 320 323 330 329 329
322 322 318 313 312 315 315 312 304 304 304 310 310 311 313 313 317 316 314 312 313 313 313 314 314 315 315 315 316 316 316 317 315 315 317 315 315 317 318 318 317 316 316 322 323 328 329
323 321 318 318 311 311 312 310 304 303 304 305 310 313 313 314 314 311 314 313 313 314 314 314 314 314 315 315 315 315 314 316 315 316 314 315 316 316 317 316 315 314 315 315 323 330 325
323 320 315 312 314 311 310 309 304 302 304 306 309 312 311 316 316 314 313 312 312 310 313 313 313 314 314 313 313 312 313 313 313 314 314 314 315 315 315 315 314 314 315 314 314 313 314
320 321 316 312 311 309 309 309 304 301 305 309 310 309 310 310 312 313 311 312 312 310 308 309 309 310 311 311 311 310 311 312 312 313 312 312 315 314 315 316 315 315 316 317 316 315 314
319 319 316 313 311 309 308 310 304 301 305 307 306 309 311 311 313 312 313 312 311 309 309 308 310 308 306 307 307 307 306 306 307 308 310 313 315 316 318 318 318 319 315 316 316 311 310
319 319 319 317 312 311 309 310 305 301 302 307 307 307 308 309 314 313 312 311 310 309 308 308 307 305 306 308 309 309 308 307 307 308 312 313 314 316 318 318 322 315 313 313 313 312 313
319 318 318 318 317 315 314 309 306 301 302 307 308 311 312 311 311 313 313 311 311 309 307 307 306 306 308 309 312 312 314 314 314 313 312 311 313 317 321 319 317 314 312 311 312 312 313
319 318 318 317 317 316 315 313 307 302 303 306 308 309 313 311 311 310 312 312 310 310 309 306 307 308 308 309 311 314 317 314 314 315 312 313 313 315 318 324 326 315 311 310 309 311 313
318 319 318 317 316 316 316 314 309 303 303 308 308 308 310 312 310 310 310 311 309 308 307 306 306 307 308 309 312 316 315 314 314 314 316 315 315 316 317 323 321 313 311 311 314 313 312
316 318 318 318 316 316 316 313 310 304 302 308 307 308 310 311 310 308 309 309 308 307 305 306 305 307 307 310 311 314 316 315 315 314 314 317 320 319 318 321 322 313 312 314 311 312 311
312 317 318 318 316 316 315 314 310 307 303 305 309 309 309 311 311 309 308 307 307 307 308 307 306 307 308 312 312 313 315 315 316 317 315 316 315 317 317 318 314 313 312 312 311 310 312

GFSGBSN_925_thetae_102.txt.gz
Theta_e
316 316 315 315 316 315 316 315 310 306 305 306 306 306 306 307 307 308 309 309 310 312 314 312 314 317 322 319 314 315 316 317 318 317 317 317 314 314 314 313 312 313 313 314 314 315 315
316 316 315 315 316 315 315 312 306 305 305 305 305 305 306 306 306 307 308 309 310 313 315 313 317 319 322 316 316 317 318 318 319 318 317 318 317 316 315 315 313 312 315 314 314 314 314
315 315 315 315 313 310 308 305 305 305 305 305 305 305 306 306 306 307 307 309 314 316 316 315 320 321 321 316 316 318 318 319 319 319 318 318 318 316 316 316 315 315 316 314 314 313 314
315 314 312 306 305 304 304 304 304 304 305 305 305 305 305 306 306 306 309 315 316 317 317 317 322 322 319 320 318 319 319 319 319 319 318 319 318 316 317 315 317 317 315 316 314 313 314
311 309 307 307 306 306 306 306 306 305 305 305 305 306 306 306 306 310 315 315 317 317 319 319 322 321 319 319 319 319 319 319 319 318 319 319 317 317 317 317 317 316 317 316 316 315 315
309 308 310 311 311 309 309 309 310 309 308 308 307 307 307 306 308 314 313 315 318 319 320 321 322 315 317 317 319 319 319 319 318 318 318 318 315 317 315 316 322 321 321 320 320 317 317
314 314 315 316 315 313 313 313 311 309 308 306 303 303 304 308 312 317 311 313 312 310 314 316 316 318 317 319 319 319 320 319 318 318 319 317 318 319 318 318 319 319 320 320 319 319 317
316 316 315 314 313 313 310 310 308 307 306 304 302 301 302 308 313 315 312 314 315 315 317 316 318 318 319 319 319 318 319 319 318 319 317 317 319 318 320 322 322 321 321 321 318 317 318
314 313 313 312 309 309 309 307 307 306 305 303 301 301 302 310 313 312 313 313 314 316 318 320 320 320 318 318 319 319 318 318 319 318 318 320 319 320 322 322 323 322 322 321 322 320 316
311 310 309 309 308 307 306 307 306 304 302 302 301 301 303 309 311 313 313 312 313 317 320 323 320 319 319 319 320 319 319 318 319 320 319 317 319 322 323 324 323 324 321 323 324 324 323
311 310 309 309 308 307 307 306 305 304 302 301 301 301 306 310 313 313 314 313 314 317 322 319 319 318 317 319 317 318 319 318 320 319 316 312 316 321 324 323 321 323 323 324 323 323 322
311 310 310 310 309 310 310 309 307 304 302 301 301 301 308 311 313 313 314 316 316 318 321 319 318 316 314 315 317 317 318 315 316 315 313 312 314 321 321 320 320 321 325 322 321 322 323
313 312 312 311 312 312 311 310 307 305 303 301 301 301 310 311 312 314 316 314 314 319 317 317 316 313 314 315 317 315 313 311 311 311 310 312 314 318 319 319 320 323 324 325 319 325 327
315 315 315 313 312 313 313 312 310 307 303 301 301 302 311 313 314 314 316 310 317 319 317 316 314 313 316 315 315 314 314 313 311 311 311 314 315 318 316 317 320 324 325 326 324 328 325
318 317 318 317 314 312 313 313 312 308 304 301 301 307 311 314 313 315 308 311 315 317 315 314 313 313 313 313 314 312 313 314 312 311 313 314 316 315 314 315 320 323 326 321 322 322 322
321 319 319 318 316 313 312 313 313 310 304 303 304 310 311 315 313 314 309 314 314 314 313 313 314 314 313 312 313 312 313 314 313 313 310 312 314 313 313 316 319 322 320 327 325 328 321
323 322 321 319 317 314 313 313 314 311 305 304 308 305 314 312 313 307 311 311 313 311 313 313 313 313 313 314 312 313 313 314 313 312 312 311 310 311 311 314 317 314 317 326 323 327 329
325 324 322 321 319 317 314 313 315 313 305 303 308 306 313 312 309 308 310 311 311 311 311 311 313 313 313 313 312 313 313 313 310 312 313 312 309 311 312 311 311 311 314 322 324 326 326
326 325 324 323 321 319 316 314 314 313 305 307 303 304 311 311 310 310 307 311 311 312 312 312 312 312 312 313 313 312 311 311 310 310 312 311 309 311 310 309 309 311 310 315 321 321 323
325 324 325 324 323 321 319 318 313 314 306 303 303 305 308 307 306 307 310 311 311 311 312 312 312 311 312 312 311 311 309 309 308 308 316 311 310 310 311 311 311 312 312 311 317 309 310
324 323 323 323 324 323 321 319 314 315 307 303 301 304 307 310 309 309 309 310 310 310 311 311 310 309 309 310 308 309 307 304 306 311 308 306 309 309 310 310 311 311 312 312 312 311 309
321 323 322 323 322 323 323 320 314 315 307 304 301 301 303 304 308 308 310 309 309 309 307 306 306 308 305 305 305 304 305 304 304 305 304 301 306 309 311 312 312 314 312 312 309 307 310
322 321 322 321 321 321 323 322 316 316 306 304 302 306 304 306 307 309 309 310 310 307 308 307 307 305 304 304 303 303 302 303 303 304 302 302 307 309 312 310 313 315 311 311 308 311 309
313 320 321 321 320 321 322 322 319 315 307 302 304 305 304 305 308 310 310 309 308 307 308 307 305 304 304 305 303 302 302 303 302 302 301 302 307 308 310 311 317 312 310 309 311 311 311
309 310 319 320 320 319 321 322 320 316 311 302 306 304 301 302 307 309 310 308 308 307 308 307 306 303 304 304 305 306 308 310 309 305 301 301 305 309 311 313 313 312 310 308 309 310 311
308 309 314 320 321 320 320 321 320 317 312 305 307 309 305 302 303 307 308 307 307 306 307 307 303 303 303 304 306 309 310 312 311 311 304 304 305 309 309 314 317 313 309 307 306 307 309
306 307 309 314 319 320 319 320 320 317 313 307 304 308 308 303 304 306 308 308 305 304 303 303 305 305 303 302 306 307 309 310 312 313 311 310 309 309 309 309 312 311 309 308 307 307 308
305 308 309 311 318 318 319 319 318 317 315 308 305 304 308 302 302 306 306 305 304 303 305 302 302 301 302 304 305 306 309 310 311 310 311 311 310 309 309 312 316 310 309 310 307 306 308
307 307 309 310 313 314 317 319 318 317 315 310 305 304 308 306 302 308 308 307 306 305 302 300 302 302 301 303 305 304 310 308 310 311 308 312 310 311 311 313 310 309 308 308 305 307 308

GFSGBSN_925_thetae_105.txt.gz
Theta_e
315 315 314 315 315 315 314 312 306 305 305 305 305 306 306 306 306 306 307 308 308 312 315 313 315 320 321 315 315 316 317 318 318 318 317 316 315 314 315 313 312 311 312 314 314 313 314
315 315 315 315 315 315 313 307 305 305 305 305 305 305 306 306 306 306 306 307 311 315 316 314 318 320 319 316 316 317 318 318 318 318 317 317 317 316 315 315 314 312 313 314 313 313 313
314 315 315 314 313 310 305 304 304 304 305 305 306 306 305 306 306 306 308 314 315 315 316 316 320 319 320 316 316 318 318 318 318 318 317 318 317 316 315 315 314 315 316 314 314 313 312
315 314 313 310 307 305 305 305 305 305 306 306 306 307 307 307 306 309 313 313 314 317 317 317 321 321 318 320 318 318 319 319 319 318 318 318 318 316 316 315 316 316 314 317 315 314 315
311 310 310 309 307 307 307 308 309 308 308 308 308 306 305 307 309 313 312 313 316 317 319 319 321 320 317 318 318 319 318 318 318 318 318 318 317 316 316 316 316 316 319 318 318 315 316
309 308 309 311 310 311 312 312 310 309 307 305 302 302 302 307 311 316 311 315 318 318 319 321 321 313 314 315 318 318 319 318 318 317 317 317 314 316 315 316 323 320 320 319 319 318 317
310 312 312 314 314 312 311 310 308 307 306 304 301 301 302 308 312 315 310 311 310 308 313 315 315 317 316 318 318 318 319 318 317 316 318 316 317 318 318 317 317 319 320 320 319 317 318
313 315 314 314 313 311 308 306 306 306 305 303 301 301 303 310 312 312 309 313 314 314 315 315 316 317 318 318 318 316 319 318 317 318 316 316 318 317 318 320 321 321 321 322 319 318 318
314 314 313 313 310 307 305 304 304 303 303 302 301 301 304 310 312 313 311 312 314 315 316 318 319 319 318 318 317 317 318 317 318 318 318 319 318 319 321 322 322 322 322 321 322 321 318
314 312 310 310 308 306 305 304 304 303 302 301 301 301 306 309 310 313 312 312 313 317 317 319 319 318 318 318 318 318 318 317 318 319 318 314 316 317 321 322 322 323 321 322 325 326 329
313 310 309 309 308 306 306 306 307 307 303 302 301 301 308 309 313 313 312 314 315 316 320 318 319 318 314 318 316 316 317 317 319 319 317 311 312 316 322 320 320 321 320 323 323 323 324
312 310 309 308 309 308 308 308 308 308 305 302 301 301 307 310 312 312 314 316 315 315 320 318 317 312 312 313 315 315 311 310 314 311 311 311 311 318 320 318 318 319 323 321 318 319 322
313 312 310 309 309 309 310 310 310 309 307 302 301 301 307 311 311 313 315 313 313 318 316 317 314 312 312 314 314 314 311 310 311 311 310 310 312 312 317 316 316 321 322 323 316 318 325
314 313 312 312 311 310 310 311 311 310 308 302 301 302 309 312 313 313 315 308 316 318 317 315 313 312 315 313 313 312 313 312 311 310 309 312 312 314 315 315 316 322 322 328 322 324 324
318 316 314 314 314 314 311 311 312 312 309 302 301 306 310 313 312 314 306 311 312 315 315 313 311 312 312 312 312 311 313 312 312 311 311 312 313 312 314 312 318 320 322 320 321 322 320
321 320 317 316 316 317 315 311 312 313 311 304 303 308 310 315 313 312 308 313 313 313 312 312 313 313 311 311 312 310 312 313 312 312 309 311 313 311 311 314 316 321 317 324 322 326 325
325 322 321 319 318 317 317 313 311 313 312 304 306 303 312 313 312 306 310 310 312 311 312 311 312 313 313 313 312 312 312 312 311 312 311 310 309 309 309 312 312 311 312 323 320 325 328
327 326 323 321 320 319 317 315 312 313 313 303 306 304 313 312 308 306 310 310 311 310 310 311 312 312 312 312 312 312 312 311 309 310 311 310 307 310 309 309 309 310 311 318 319 318 324
324 327 326 324 322 321 319 317 314 314 312 307 301 302 310 310 309 310 308 310 310 311 311 311 312 312 311 312 312 311 311 310 306 308 308 309 308 307 307 308 308 310 310 310 319 315 319
324 324 326 326 324 322 321 319 315 314 313 304 301 304 307 305 304 308 309 311 310 310 311 311 311 311 311 311 310 311 309 308 305 309 314 309 308 306 306 307 309 310 311 310 312 308 308
322 325 324 326 324 324 323 321 317 315 315 304 300 302 306 308 309 306 308 310 310 310 310 309 309 310 308 308 309 308 307 304 304 307 306 305 307 308 308 309 309 310 311 311 310 310 309
321 322 324 325 325 323 324 323 320 317 315 305 300 300 302 305 307 307 309 309 309 309 307 306 306 306 305 305 306 306 304 304 303 304 303 300 299 307 309 310 311 312 311 311 308 307 311
313 320 321 323 324 323 322 323 322 319 315 305 300 304 304 304 305 308 308 309 309 308 307 306 305 305 304 303 302 301 301 301 302 303 301 301 302 308 309 309 311 313 310 310 308 310 309
310 310 312 320 321 321 322 321 322 321 316 303 301 305 304 305 307 309 310 309 309 306 308 305 303 304 304 304 303 302 301 301 301 301 300 301 306 306 309 310 317 312 308 309 310 311 310
307 309 310 310 315 319 320 320 320 322 317 307 303 302 302 302 307 309 309 308 307 307 307 306 305 303 302 303 301 304 306 308 307 303 300 300 303 307 309 312 311 314 308 309 309 308 309
303 306 310 309 310 317 319 319 320 321 319 312 304 306 300 299 301 308 309 307 306 306 306 306 303 302 301 303 305 307 308 311 310 309 301 301 303 307 308 312 315 313 308 306 306 306 307
307 304 305 308 309 313 320 319 319 320 321 314 306 305 305 300 300 305 306 308 305 305 305 303 304 305 301 301 303 305 307 308 310 312 309 306 306 305 308 308 310 309 309 305 306 306 307
308 307 304 304 308 310 313 319 319 318 320 316 309 305 307 302 301 305 306 305 303 304 305 302 302 301 301 302 303 304 306 307 311 309 309 309 308 307 307 309 313 308 307 308 305 306 307
307 307 308 306 309 310 311 318 320 319 318 317 309 306 306 302 300 307 307 307 305 304 302 298 304 300 302 301 301 302 307 306 308 310 307 309 309 310 309 310 308 308 307 307 304 305 307